Résultats de la compétition "WE des Garagnats : La Jasserie - Le Bessat" du 17-10-2009 organisée par le club 4201
     
  Télécharger le fichier CSV.  
     
     

 Circuit "Circuit A"

Licence Nom Prénom Temps CN
précédent
Score sur
la course
Différence
149COUPATOlivier0:36:2579339132+1199
7397TRANCHANDFrederic0:42:0381767908-268
8695BASSETLucas0:44:1082107529-681
205PERRINEric0:47:4870846957-127
2366BENACEKPhilippe0:49:5552186662+1444
9497BOICHUTCharly0:50:4373726557-815
9354LOCATELLIYann0:53:0068166274-542
7060CHATELONDavid0:54:5543116055+1744
183LINOSSIERPierre0:57:3262195780-439
2472LASOUCHEJohann0:59:1159405619-321
12401KERN-GILLARDMathieu1:03:1563925258-1134
2321DENAIXMichel1:05:5064745051-1423
172GUYJ-Baptiste1:08:41N/A4842N/A
8181MORELFranck1:10:0152534749-504
20753LOUISONBruno1:11:51N/A4628N/A
8310CHABANOLMatthieu1:12:5038584566+708
13388BRODZKIIvan1:13:18N/A4537N/A
9401LE DREAUCorentin1:16:5253444326-1018
18477LAFARGEAlexandre1:18:03N/A4261N/A
10708GERYMathias1:19:22N/A4190N/A
16722DEROUXBenoit1:22:3945184023-495
12057POUPARDStephane1:26:5544793826-653
21005MOREAUOlivier1:31:39N/A3628N/A
17726LANTUEJOULJulienN/AN/A0N/A
814DEVRIEUXRobinN/A57150-5715
14282CRESPINCelestinN/A68190-6819
12058POUPARDThibautN/A82010-8201

  Indice de confiance du circuit (moyenne des différences entre CN et score sur la course des 3 à 10 premiers) : 541




 Circuit "Circuit B"

Licence Nom Prénom Temps CN
précédent
Score sur
la course
Différence
19587BOUCHETCharlotte0:42:5657725928+156
1678LASSALLEPascal0:43:2564955862-633
16372BAUDOTRemi0:44:0048915784+893
3811GRANGEREmmanuel0:45:2856095598-11
11742MAGLIONEEric0:45:4053235573+250
136BORNARDPatrice0:47:5263185317-1001
9486VERCELLOTTICapucine0:49:5553845099-285
8106LELOUPMarine0:51:2462694952-1317
244BONORALaurent0:51:3448424936+94
4836D'HARREVILLEMelanie0:51:4756884915-773
3818BASSETOlivier0:51:5253974907-490
1557CHATELONLucile0:52:1038374879+1042
8203ASTRADELaurent0:53:1357974783-1014
6948BODYJ-Laurent0:53:16N/A4778N/A
17446LAVENNEPhilippe0:54:4042404656+416
8457BODYThierry0:57:0449904460-530
21358GHIBAUDONicolas0:57:35N/A4420N/A
2683MOUILLONLaurent0:57:5532564394+1138
17951DUDOIGNONLudovic0:58:0536444382+738
1265COLLETERThomas0:58:2648044356-448
13409SILVESTREEric0:58:5341584322+164
13228BENOITPatrice1:00:1627214223+1502
17002BOVEROSeverine1:00:4540054190+185
1848DERMINEJean1:01:4256614125-1536
15691DABINStephane1:02:0232064103+897
3203DESBRESTPatrick1:02:5347694047-722
241DUCRETPhilippe1:03:0441714036-135
282PAULETDamien1:03:1047044029-675
2328MOISSETJacques1:03:2551494013-1136
255LONGEREGilles1:04:1035793966+387
17135LOTISSIERMarc1:04:2931093947+838
8773GRATIENJacques1:04:4050253936-1089
6352GAYDONRegis1:04:5146213925-696
8359MONTERRATAmandine1:05:4754583869-1589
19532ROYERAurore1:06:1921663838+1672
13336DEFIXDominique1:11:28N/A3561N/A
19065BENOITAnne1:11:5236223541-81
15864JACOBFlorence1:12:2338953516-379
18599PRALUSAlain1:14:3726303411+781
12528LAVETTIEmmanuelle1:16:1743413336-1005
13965CHAVEEPhilippe1:25:0531452991-154
260THOMASSINJ-Luc1:25:1834072984-423
7303LELOUPHerve-Philipp1:27:0737252922-803
21070BERTHOUDLéo1:28:05N/A2889N/A
18812SCHAEFFEROlivier1:35:10N/A2674N/A
18078RADISSONBruno1:37:2033662615-751
21385CAZAUBONNorbert1:41:25N/A2510N/A
12773OBSTETARPerrineN/A58980-5898
21095GARONYannickN/AN/A0N/A

  Indice de confiance du circuit (moyenne des différences entre CN et score sur la course des 3 à 10 premiers) : 180




 Circuit "Circuit C"

Licence Nom Prénom Temps CN
précédent
Score sur
la course
Différence
10183BODYFlorentin0:44:0850685917+849
13554CHATAINGClement0:46:1748345642+808
7248COUPATElisabeth0:49:3633695265+1896
9932BASSETIsia0:54:1656644812-852
12503PETETINJ-Louis0:55:1136634732+1069
17505MAGLIONEJonathan0:57:0039684581+613
6741HENROTThierry0:58:2032364476+1240
15520VAUCHEEric1:05:4924823968+1486
1928CHAILLARDMarketa1:06:2143133936-377
9396LE DREAUJ-Claude1:07:0739803891-89
243BONORABeatrice1:07:0943503889-461
841GATYDaniele1:08:2739403815-125
11707CHAILLARDFabien1:09:5235603738+178
20458PARMENTIERPaul1:10:45N/A3691N/A
10503MAZARDJ-Pierre1:11:5243233634-689
11837MINOTBernard1:12:4933463586+240
19764CHABANCEMaxime1:18:1930653334+269
288LEGALLRoger1:18:4531783316+138
9933BASSETSylvie1:19:0145753305-1270
851VALLATGerard1:21:0236703222-448
6612ABELMartine1:21:2841803205-975
12124CHABALClaire1:21:5643883187-1201
1241FALGAChristina1:22:0333523183-169
8358MONTERRATMorgane1:24:1238423101-741
10502PELLETIERGenevieve1:24:2543933093-1300
11950DESBRESTSabine1:25:01N/A3071N/A
240POCINHO-CHAPATChristine1:25:2428123058+246
18130BERRARDMarianne1:25:50N/A3042N/A
6494CAVELIUSPhilippe1:29:00N/A2934N/A
15092VILLEDIEUJ-Luc1:29:2731892919-270
16096FLECHETMartine1:29:48N/A2908N/A
19706MALEYSSONAndre1:31:21N/A2859N/A
10283GRATIENNathalie1:32:4232162817-399
20829PERRAUDINAnne1:34:59N/A2749N/A
20419FLOTTEAlexandra1:35:32N/A2733N/A
277JACOMINOMireille1:37:4538052671-1134
21046GONETJanick1:41:16N/A2579N/A
10394INDEAUXCatherine1:53:5127212294-427
17752COURTESFrederic2:03:4517612110+349
21096GARONCorine2:31:01N/A1729N/A
813COMBETAnnieN/A41850-4185
17952DUDOIGNONJocelyneN/AN/A0N/A
15093VILLEDIEURemiN/A45200-4520
8512MONTERRATMartineN/A31780-3178
18079WOEHRLE RADISSONAnneN/A27920-2792

  Indice de confiance du circuit (moyenne des différences entre CN et score sur la course des 3 à 10 premiers) : 422




 Circuit "Circuit D"

Licence Nom Prénom Temps CN
précédent
Score sur
la course
Différence
1270ANTOINEAlain0:31:4752424840-402
11355BASSETMarian0:33:1039284638+710
8928MASCARELLHenri0:33:5450424538-504
7711DENAIXLou0:39:0431473937+790
751VOLAYAndre0:39:36N/A3884N/A
1673ANNERoger0:39:5333963857+461
18432HUMMEL-AZAISMargaux0:40:0033103846+536
8108LELOUPAnouk0:44:0745563487-1069
171GUYClaire0:45:56N/A3349N/A
2343DUFOURMarcel0:51:1945332997-1536
1283MINOBernard0:51:45N/A2972N/A
21435DEFIXAnne Claire0:54:48N/A2807N/A
1672ANNEBrigitte0:58:4334382620-818
4597CERETMartine0:58:4528332618-215
16403EUZENJ-Paul1:03:1729122431-481
12056SCHMITT-POUPARDFlorence1:05:4134772342-1135
11746MERCEYBernard1:06:23N/A2317N/A
18154SCHAEFFERIsabelle1:11:16N/A2158N/A
18122BENOITNathalie1:13:28N/A2094N/A
12354GROSJEANPierre1:13:3125012092-409
12059GROSJEANA-Marie1:15:0823092047-262
2349HELIOTClaude1:23:1628681847-1021
11810GUETMartine1:26:0026381789-849
11747BONNET-LIGEONMichele1:27:32N/A1757N/A
18081RADISSONLouise1:36:4419111590-321
18LEVEQUEPierreN/A15060-1506
17LEVEQUEPauletteN/A21580-2158

  Indice de confiance du circuit (moyenne des différences entre CN et score sur la course des 3 à 10 premiers) : 549




 Circuit "Circuit E"

Licence Nom Prénom Temps CN
précédent
Score sur
la course
Différence
8975PERRINArnaud0:19:0732633677+414
18120CHABANCEThomas0:20:4834443379-65
17925DROINSolene0:23:2123613010+649
16357MAISONNEUVEValentine0:24:3233192865-454
7672DEVRIEUXNais0:25:3235722753-819
19767LOPEZEtienne0:25:3516302747+1117
10184BODYMathilde0:28:1526802488-192
17418LAFARGEEmeline0:31:4730282212-816
9402BORNARDJulie0:32:1821572176+19
12403FALGABeatrice0:34:0116982066+368
20625BESSONManon0:38:36N/A1821N/A
19762BERRARDAnna0:40:10N/A1750N/A
20410FALCOZEstelle0:40:50N/A1721N/A
22451RIVOLLIERIsaline0:41:41N/A1686N/A
17708XIMENEZVincent0:46:3819421507-435
22328POINASCamille0:47:20N/A1485N/A
11542BONORAMarine0:48:5619191436-483
15412ASTRADEBaptisteN/A21790-2179

  Indice de confiance du circuit (moyenne des différences entre CN et score sur la course des 3 à 10 premiers) : 491




 Circuit "Circuit F"

Licence Nom Prénom Temps CN
précédent
Score sur
la course
Différence
12358RINGOTPaul0:18:1331732581-592
8976PERRINMathieu0:18:2827432546-197
18089DUDOIGNONChloé0:24:25N/A1926N/A
18080RADISSONJules0:25:1820351858-177
20744LE PENNECJean0:25:38N/A1834N/A
12398BASSETJuliette0:27:1622111724-487
20916CORBINEmma0:29:54N/A1572N/A
19399MARLIACQuentin0:31:20N/A1500N/A
15413ASTRADEGaspard0:32:2314911452-39
18738CHAVEEAntoine0:33:5914251383-42
17953DUDOIGNONMarine0:34:52N/A1348N/A
12045CHAILLARDDana0:35:5120991311-788
20915CORBINMariane0:37:09N/A1266N/A
11543BONORALise0:38:3614311218-213
20917GHIBAUDOSimon0:39:46N/A1182N/A
22094VIGIERLéo0:42:30N/A1106N/A
18397COUPATSabin0:44:4819911049-942
9403BORNARDNicolasN/A21940-2194
19761BERRARDTomN/AN/A0N/A
7304LELOUPBlandineN/AN/A0N/A

  Indice de confiance du circuit (moyenne des différences entre CN et score sur la course des 3 à 10 premiers) : 265




 Circuit "Jalonné"

Licence Nom Prénom Temps CN
précédent
Score sur
la course
Différence
18123BENOITDorian0:25:56N/A1648N/A
15414ASTRADESimeon0:32:068641331+467
18126BENOITLucas0:35:38N/A1199N/A
21388TRONCHONElouan0:36:43N/A1164N/A
18847BONORAYoann0:36:559201158+238
15443BORNARDAnais0:48:32N/A881N/A
18766LONGÈREChloéN/A3580-358
22452MAJKAAdrienN/AN/A0N/A

  Indice de confiance du circuit (moyenne des différences entre CN et score sur la course des 3 à 10 premiers) : 571






 Retour